Regional Weather Roundup
Issued by NWS

Home | Current Version | Previous Version | Graphics & Text | Print | Product List | Glossary On
Versions: 1 2 3 4 5 6 7 8 9 10 11 12 13 14 15 16 17 18 19 20 21 22 23 24 25 26 27 28 29 30 31 32 33 34 35 36 37 38 39 40 41 42 43 44 45 46 47 48 49 50
000
ASUS43 KDMX 290408
RWRIA

WEATHER ROUNDUP FOR IOWA
NATIONAL WEATHER SERVICE DES MOINES IA
1100 PM CDT SUN AUG 28 2016

NOTE: "FAIR" INDICATES FEW OR NO CLOUDS BELOW 12,000 FEET WITH NO
SIGNIFICANT WEATHER AND/OR OBSTRUCTIONS TO VISIBILITY.

* - THESE STATIONS ARE NOT NWS STATIONS...THUS NOT UNDER NWS
QUALITY CONTROL.  THEY ALSO DO NOT REPORT WEATHER SUCH
AS PRECIPITATION OR FOG.

IAZ001>003-012>014-020>022-031>034-043>046-290500-
   NORTHWEST IOWA

CITY           SKY/WX    TMP DP  RH WIND       PRES   REMARKS
CARROLL *      CLEAR     64  64 100 CALM      30.16R
CHEROKEE *     CLOUDY    67  65  95 S5        30.14R
DENISON *      CLEAR     66  64  94 CALM      30.14R
LE MARS *      CLEAR     70  64  83 SE5       30.13R
ORANGE CITY *  PTCLDY    70  66  88 SE6       30.13R
SHELDON *      PTCLDY    68  68 100 CALM      30.12R
SIOUX CITY     PTCLDY    69  65  86 SE7       30.12R
SPENCER        MOCLDY    68  64  87 SE6       30.14S
STORM LAKE *   CLOUDY    68  66  94 SE8G14    30.16R
$$

IAZ055>058-069>071-079>083-090>094-290500-
   SOUTHWEST IOWA

CITY           SKY/WX    TMP DP  RH WIND       PRES   REMARKS
ATLANTIC *     MOCLDY    66  66 100 CALM      30.15R
AUDUBON *      PTCLDY    64  63  94 CALM      30.17R
CLARINDA *       N/A     68  68 100 MISG      30.15R
COUNCIL BLFS * CLOUDY    70  66  88 E7        30.14R
CRESTON *      CLOUDY    68  68 100 E8        30.18R
HARLAN  *      PTCLDY    68  66  94 CALM      30.18R
LAMONI         PTCLDY    70  69  97 E5        30.16R
RED OAK *      CLOUDY    68  68 100 CALM      30.14R
SHENANDOAH *   CLOUDY    70 -38   1 S3        30.13R
$$

IAZ047>049-059>061-072>074-084-290500-
   CENTRAL IOWA

CITY           SKY/WX    TMP DP  RH WIND       PRES   REMARKS
AMES           CLEAR     68  68 100 CALM      30.17R
ANKENY *         N/A    N/A N/A N/A MISG        N/A
BOONE *        PTCLDY    68  66  94 CALM      30.17R
CHARITON *       N/A     73  70  88 MISG      30.17R
DES MOINES     CLOUDY    75  67  76 E7        30.15R
GRINNELL*      CLOUDY    73  67  83 SE6       30.20R
KNOXVILLE *    CLOUDY    73  72  94 E8        30.17R
MARSHALLTOWN   CLEAR     73  69  87 SE8       30.16S
NEWTON *       CLOUDY    73  72  94 SE13      30.18R
PELLA *        PTCLDY    74  69  83 SE9       30.19R
PERRY *          N/A     69  68  98 CALM      30.17R
$$

IAZ004>006-015-016-023>025-035-036-290500-
   NORTH CENTRAL IOWA

CITY           SKY/WX    TMP DP  RH WIND       PRES   REMARKS
ALGONA *       PTCLDY    70  66  88 SE7       30.16R
ESTHERVILLE    PTCLDY    67  66  97 S6        30.14R
FORT DODGE *   PTCLDY    70  64  83 SE6       30.17R
MASON CITY     CLOUDY    74  71  91 S9        30.18R
FOREST CITY *    N/A    N/A N/A N/A MISG        N/A
WEBSTER CITY * CLEAR     68  68 100 CALM      30.16R
IOWA FALLS *     N/A     73  70  93 SE3       30.18F
$$

IAZ007>011-017>019-026>030-037>042-050>054-066-290500-
   NORTHEAST IOWA

CITY           SKY/WX    TMP DP  RH WIND       PRES   REMARKS
CEDAR RAPIDS   MOCLDY    69  69 100 S3        30.16F
CHARLES CITY * CLOUDY    73  73 100 SE8       30.18S
CLINTON *      CLOUDY    71  70  96 E3        30.19S
DECORAH *      CLOUDY    72  72 100 SE6       30.18R
DUBUQUE        CLOUDY    69  67  93 MISG      30.21R
MONTICELLO *   CLOUDY    68  66  94 NE6       30.18S
OELWEIN *      PTCLDY    70  68  94 S7        30.19S
WATERLOO       PTCLDY    73  67  81 SE13      30.16R
$$

IAZ064-065-067-068-078-290500-
   EAST CENTRAL IOWA

CITY           SKY/WX    TMP DP  RH WIND       PRES   REMARKS
DAVENPORT      LGT RAIN  71  69  93 SE6       30.18R
IOWA CITY      CLOUDY    72  68  87 CALM      30.17S
MT. PLEASANT * PTCLDY    73  73 100 CALM      30.18S
QUAD CITIES    CLOUDY    73  69  87 E6        30.19R
$$

IAZ062-063-075>077-085>089-095>099-290500-
   SOUTHEAST IOWA

CITY           SKY/WX    TMP DP  RH WIND       PRES   REMARKS
BURLINGTON     PTCLDY    72  70  93 CALM      30.17F
FAIRFIELD *    MOCLDY    72  68  88 CALM      30.18S
FORT MADISON * CLOUDY    72  70  94 CALM      30.19S
KEOKUK *       CLOUDY    75  70  83 E5        30.16S
OSKALOOSA *      N/A     71  68  92 SE9       30.18S
CENTERVILLE *    N/A     72  70  94 CALM      30.19R
OTTUMWA        CLEAR     72  68  87 E13       30.18S
WASHINGTON *   CLOUDY    73  70  88 CALM      30.17F
$$

ABBREVIATIONS USED IN REMARKS
   TC - TEMPERATURES IN CELSIUS
  WCI - WIND CHILL INDEX
   HX - HEAT INDEX
  VSB - VISIBILITY
$$





USA.gov is the U.S. government's official web portal to all federal, state and local government web resources and services.